Tracking 29494 objects as of 7-Sep-2024
HD Live streaming from Space Station
objects crossing your sky now

EUTELSAT 1-F4 (ECS 4)

Track EUTELSAT 1-F4 (ECS 4) now!
EUTELSAT 1-F4 (ECS 4) is classified as:


NORAD ID: 18351
Int'l Code: 1987-078B
Perigee: 36,215.8 km
Apogee: 36,271.5 km
Inclination: 14.3 °
Period: 1,459.1 minutes
Semi major axis: 42614 km
RCS: 3.9811 m2 (large)
Launch date: September 16, 1987
Source: European Telecommunications Satellite Organization (EUTE)
Launch site: FRENCH GUIANA (FRGUI)
Your satellite tracking list
Your tracking list is empty




NASA's NSSDC Master Catalog

Two Line Element Set (TLE):
1 18351U 87078B   24251.61866934 -.00000009  00000-0  00000-0 0  9995
2 18351  14.2925 346.6869 0006541  47.4455 218.9818  0.98688041120363
Source of the keplerian elements: AFSPC